Location: Caltech
(34.1382°N, 118.1253°W)
Time: 00:18:22
(UTC-07:00)

AO-Echo - Visible Passes

Search period start: 30 July 2016 00:00
Search period end: 09 August 2016 00:00
Orbit: 693 x 811 km, 98.3° (Epoch: 29 July)

Date Brightness Start Highest point End Pass type
(mag) Time Alt. Az. Time Alt. Az. Time Alt. Az.
30 Jul ? 02:16:05 10° NNE 02:18:36 31° NNE 02:18:36 31° NNE visible
31 Jul ? 01:36:22 10° NE 01:37:35 16° NE 01:37:35 16° NE visible
31 Jul ? 03:15:01 10° NNW 03:17:31 22° NW 03:17:31 22° NW visible
01 Aug ? 02:33:57 10° N 02:36:31 32° N 02:36:31 32° N visible
02 Aug ? 01:53:46 10° NNE 01:55:30 21° NE 01:55:30 21° NE visible
02 Aug ? 03:33:34 10° NNW 03:35:26 16° NW 03:35:26 16° NW visible
03 Aug ? 02:51:58 10° N 02:54:26 28° NNW 02:54:26 28° NNW visible
04 Aug ? 02:11:24 10° NNE 02:13:25 25° NNE 02:13:25 25° NNE visible
04 Aug ? 03:52:59 10° NW 03:53:20 10° NW 03:53:20 10° NW visible
05 Aug ? 01:31:48 10° NE 01:32:24 13° NE 01:32:24 13° NE visible
05 Aug ? 03:10:10 10° NNW 03:12:20 22° NNW 03:12:20 22° NNW visible
06 Aug ? 02:29:13 10° N 02:31:19 27° N 02:31:19 27° N visible
07 Aug ? 01:49:08 10° NNE 01:50:18 17° NE 01:50:18 17° NE visible
07 Aug ? 03:28:38 10° NNW 03:30:14 16° NW 03:30:14 16° NW visible
08 Aug ? 02:47:11 10° N 02:49:14 25° N 02:49:14 25° N visible
